Location: Mountain Grove
(34.0887°N, 86.6172°W)
Time: 00:28:04
(UTC+00:00)

BREEZE M DEB (TANK) - Pass Details

Date: 14 July 2020
Orbit: 285 x 14545 km, 49.5° (Epoch: 11 August)

Event Time Altitude Azimuth Distance (km) Brightness Sun altitude
Rises 02:25:54 0° 319° (NW) 2,594 8.0 -15.8°
Reaches altitude 10° 02:29:05 10° 352° (N) 1,221 5.3 -16.2°
Maximum altitude 02:30:15 13° 24° (NNE) 1,004 4.4 -16.4°
Enters shadow 02:30:51 12° 43° (NE) 1,032 4.2 -16.5°
